Lincoln, NE

9:52 PM CDT on October 18, 2019 (GMT -0500)
Lincoln Municipal

Weather History for KLNK - September, 2019

Change the Weather History Date:

Friday, September 20, 2019

  Actual Average Record
Temperature  
Mean Temperature 80 °F 64 °F  
Max Temperature 89 °F 77 °F 96 °F (2016)
Min Temperature 70 °F 51 °F 31 °F (1918)
Degree Days  
Heating Degree Days 0 4  
Month to date heating degree days 0 39  
Since 1 July heating degree days 0 45  
Cooling Degree Days 15 3  
Month to date cooling degree days 226 102  
Year to date cooling degree days 1278 1137  
Growing Degree Days 30 (Base 50)    
Moisture  
Dew Point 67 °F    
Average Humidity 68    
Maximum Humidity 90    
Minimum Humidity 46    
Precipitation  
Precipitation T in 0.10 in 2.61 in (1955)
Month to date precipitation 0.38 2.13  
Year to date precipitation 25.04 23.71  
Snow  
Snow 0.00 in 0.00 in T in (1983)
Month to date snowfall 0.0 0.0  
Since 1 July snowfall 0.0 0.0  
Since 1 September snowfall 0.0 0.0  
Snow Depth 0.00 in    
Sea Level Pressure  
Sea Level Pressure 29.90 in    
Wind  
Wind Speed 14 mph (SSE)    
Max Wind Speed 26 mph    
Max Gust Speed 37 mph    
Visibility 10 miles    
Events Rain    
T = Trace of Precipitation, MM = Missing Value Source: NWS Daily Summary

Daily Weather History Graph

Daily Weather History Graph

Search for Another Location

Airport or City:

Astronomy

Sep. 20, 2019 Rise Set
Actual Time 7:12 AM CDT 7:27 PM CDT
Civil Twilight 6:44 AM CDT 7:55 PM CDT
Nautical Twilight 6:12 AM CDT 8:27 PM CDT
Astronomical Twilight 5:39 AM CDT 9:00 PM CDT
Moon 11:16 PM CDT (9/20) 1:20 PM CDT (9/20)
Length of Visible Light 13h 10m
Length of Day
12h 15m
Waning Gibbous, 65% of the Moon is Illuminated
Sep 20
Waning Gibbous
Sep 21
Last Quarter
Sep 28
New
Oct 5
First Quarter
Oct 13
Full

Hourly Weather History & Observations

Time (CDT) Temp. Heat Index Dew Point Humidity Pressure Visibility Wind Dir Wind Speed Gust Speed Precip Events Conditions
12:54 AM 73.9 °F - 68.0 °F 82% 29.94 in 10.0 mi SSE 6.9 mph - N/A   Clear
1:54 AM 73.0 °F - 68.0 °F 84% 29.94 in 10.0 mi South 8.1 mph - N/A   Clear
2:54 AM 73.0 °F - 68.0 °F 84% 29.94 in 10.0 mi South 8.1 mph - N/A   Clear
3:54 AM 73.0 °F - 66.9 °F 81% 29.94 in 10.0 mi South 9.2 mph - N/A   Clear
4:54 AM 71.1 °F - 66.9 °F 87% 29.92 in 10.0 mi SSE 6.9 mph - N/A   Clear
5:54 AM 72.0 °F - 66.9 °F 84% 29.92 in 10.0 mi SSE 6.9 mph - N/A   Clear
6:54 AM 71.1 °F - 66.9 °F 87% 29.94 in 10.0 mi South 3.5 mph - N/A   Clear
7:54 AM 71.1 °F - 66.9 °F 87% 29.95 in 9.0 mi SSE 3.5 mph - N/A   Clear
8:54 AM 73.9 °F - 66.9 °F 79% 29.96 in 10.0 mi SSE 10.4 mph - N/A   Clear
9:54 AM 78.1 °F - 68.0 °F 71% 29.96 in 10.0 mi South 11.5 mph - N/A   Scattered Clouds
10:54 AM 80.1 °F 82.7 °F 68.0 °F 67% 29.96 in 10.0 mi South 11.5 mph - N/A   Mostly Cloudy
11:54 AM 82.9 °F 85.0 °F 66.0 °F 56% 29.94 in 10.0 mi South 12.7 mph - N/A   Scattered Clouds
12:54 PM 86.0 °F 87.6 °F 64.9 °F 49% 29.92 in 10.0 mi SSE 20.7 mph 28.8 mph N/A   Clear
1:54 PM 88.0 °F 89.6 °F 64.9 °F 46% 29.89 in 10.0 mi SSE 24.2 mph 33.4 mph N/A   Partly Cloudy
2:54 PM 87.1 °F 88.9 °F 64.9 °F 48% 29.88 in 10.0 mi SSE 24.2 mph 31.1 mph N/A   Scattered Clouds
3:54 PM 86.0 °F 88.2 °F 66.0 °F 51% 29.86 in 10.0 mi SSE 20.7 mph 29.9 mph N/A   Mostly Cloudy
4:54 PM 82.0 °F 84.9 °F 68.0 °F 62% 29.87 in 10.0 mi SSE 17.3 mph - N/A   Overcast
5:54 PM 79.0 °F - 66.9 °F 66% 29.86 in 10.0 mi SSE 23.0 mph 32.2 mph N/A   Overcast
6:54 PM 77.0 °F - 66.0 °F 69% 29.85 in 10.0 mi South 16.1 mph 27.6 mph N/A   Partly Cloudy
7:15 PM 77.0 °F - 66.0 °F 69% 29.89 in 10.0 mi South 17.3 mph 24.2 mph N/A   Mostly Cloudy
7:54 PM 75.0 °F - 66.0 °F 73% 29.86 in 10.0 mi South 17.3 mph - N/A   Overcast
8:54 PM 73.9 °F - 66.9 °F 79% 29.86 in 10.0 mi South 16.1 mph 27.6 mph N/A   Overcast
9:54 PM 73.9 °F - 66.9 °F 79% 29.85 in 10.0 mi South 16.1 mph 26.5 mph N/A   Overcast
10:09 PM 72.0 °F - 69.1 °F 91% 29.89 in 4.0 mi South 16.1 mph - 0.00 in Rain Light Rain
10:12 PM 72.0 °F - 69.1 °F 91% 29.89 in 6.0 mi South 17.3 mph - 0.00 in Rain Light Rain
10:19 PM 72.0 °F - 68.0 °F 87% 29.89 in 10.0 mi South 15.0 mph - 0.00 in   Overcast
10:26 PM 72.0 °F - 68.0 °F 87% 29.89 in 10.0 mi SSE 12.7 mph - 0.00 in   Mostly Cloudy
10:54 PM 72.0 °F - 68.0 °F 87% 29.86 in 10.0 mi SSE 15.0 mph - 0.00 in   Overcast
11:54 PM 72.0 °F - 68.0 °F 87% 29.85 in 10.0 mi South 15.0 mph - N/A   Overcast